Temp
82 78 80 85 86 88 88 89 89 90 89 90 90 92 93 93 92 91 90 89 88 87 87 87 87 87 87 88 88 88 89 89 89 90 90 90 91 90 90 92 91 90 92 92 91 91 91 91 91 92 91 90 91 90 89 89 89 91 90 88 89 89 89
83 82 83 85 87 88 89 90 90 90 90 90 91 91 93 93 92 91 90 89 88 88 88 88 87 88 88 88 89 88 88 88 89 89 91 90 90 89 91 90 91 89 89 91 91 91 91 92 92 91 91 91 91 90 90 90 89 89 91 89 89 89 89
83 82 84 85 85 89 89 91 90 90 90 92 92 93 92 91 91 90 89 90 88 89 90 89 88 89 89 88 88 88 89 89 89 90 90 92 91 94 92 90 90 92 93 92 91 93 93 93 91 91 91 91 93 90 90 90 89 90 89 88 89 90 88
80 83 83 85 83 87 89 89 90 91 92 91 91 93 92 90 92 91 91 91 90 89 88 90 90 90 90 89 88 88 88 89 89 91 92 93 93 93 92 91 90 92 92 92 94 93 96 93 92 91 90 90 90 92 91 91 92 90 90 88 89 89 88
83 83 82 80 84 86 88 88 89 89 90 90 90 91 93 92 92 93 92 93 95 92 93 93 95 93 92 92 92 92 90 90 90 91 92 93 92 93 92 93 93 93 92 94 92 91 90 91 93 92 91 89 91 91 90 90 91 89 89 89 89 90 90
83 81 78 78 80 79 83 86 86 86 87 88 88 89 91 91 92 93 92 92 92 92 92 92 94 93 92 93 93 93 92 90 89 89 90 91 91 93 93 92 94 93 94 92 94 93 92 92 93 93 93 94 93 94 93 92 93 93 90 89 90 91 91
84 83 80 81 81 82 83 83 84 83 86 88 88 89 90 90 89 90 89 90 90 88 88 90 92 94 92 93 92 92 91 92 91 91 92 92 93 92 92 92 92 94 95 94 93 94 93 92 92 92 93 94 92 94 92 90 91 92 91 89 88 89 89
87 85 84 83 84 82 80 79 80 83 85 87 87 87 87 87 87 88 87 89 89 88 88 88 90 91 90 92 93 93 93 93 94 92 92 93 93 93 93 94 92 93 93 94 93 94 94 93 94 94 93 94 93 92 93 90 89 93 93 90 89 90 94
87 85 83 83 83 81 79 77 76 79 81 83 84 85 86 86 86 86 87 87 88 87 87 88 90 90 90 90 91 91 93 93 94 93 93 93 94 95 96 96 95 94 93 94 95 94 94 95 95 92 92 92 92 90 92 90 91 92 92 91 89 89 92
82 82 82 82 83 82 79 76 75 74 73 77 80 82 84 84 85 86 86 86 87 86 87 88 88 89 88 87 88 91 93 92 92 95 94 94 94 94 96 97 97 95 95 95 97 96 94 95 94 93 90 91 90 90 91 90 92 92 93 91 91 90 89
81 81 81 81 81 80 78 77 74 73 73 72 73 77 78 78 81 83 84 86 86 87 87 87 88 87 87 87 87 88 90 93 94 93 93 94 96 96 96 97 98 96 95 96 96 97 96 93 94 92 91 93 92 91 90 91 91 91 93 93 93 92 92
78 79 80 79 80 80 78 77 75 73 73 73 74 75 75 75 78 79 79 82 84 85 85 86 87 87 88 87 87 86 87 90 92 92 93 94 95 96 96 96 97 97 96 96 95 95 96 95 95 94 91 91 92 92 91 91 91 90 91 94 94 93 93
76 76 77 78 79 79 79 78 77 75 73 73 73 74 74 74 75 75 76 78 81 83 84 84 84 84 85 86 87 87 87 89 89 90 93 92 93 95 95 96 97 96 96 96 95 95 96 97 94 94 94 92 93 93 92 91 92 90 90 91 92 92 92
72 74 74 73 72 74 75 77 78 76 75 74 72 73 73 74 74 75 75 76 78 79 79 79 80 81 82 83 84 86 88 89 90 91 90 90 90 91 94 95 95 94 94 95 94 95 95 96 96 96 95 94 94 93 93 92 92 91 90 91 92 93 92
72 73 73 73 72 74 76 75 75 77 76 76 76 75 74 73 74 74 74 75 76 77 78 80 79 78 77 78 78 78 81 84 86 87 88 88 88 87 89 91 92 92 92 92 93 96 96 96 97 96 95 95 94 93 95 96 95 95 92 90 90 92 93
73 73 72 71 71 71 72 73 74 75 76 75 75 74 75 75 75 75 75 75 76 76 77 78 79 78 77 76 77 78 78 78 80 83 85 85 85 85 86 89 90 93 92 91 91 91 91 92 94 96 96 95 94 94 96 96 97 91 84 86 91 92 95
71 70 69 70 70 71 72 73 73 73 73 74 75 76 76 75 75 75 76 77 78 77 76 76 76 76 76 75 76 76 76 76 76 77 78 80 82 83 83 84 87 88 88 89 89 88 88 90 92 94 95 95 95 95 96 97 98 79 74 75 77 88 91
69 69 68 68 68 69 69 70 70 71 71 71 71 71 73 73 74 75 75 77 78 78 77 75 75 75 76 77 77 77 77 77 77 78 78 78 78 80 81 81 83 84 85 87 89 87 89 89 89 90 93 95 96 96 97 97 83 71 71 72 71 77 89
69 68 67 67 67 68 68 69 69 70 71 71 72 70 69 70 69 68 72 74 76 78 77 76 75 76 77 78 79 80 80 79 79 79 79 80 80 79 79 78 80 82 84 85 88 89 86 86 88 88 89 91 91 93 95 98 73 71 69 70 68 68 79
70 68 68 68 69 69 69 69 69 68 68 68 69 69 69 69 68 69 72 72 73 73 74 74 74 74 75 77 77 78 79 80 80 80 80 80 79 78 78 77 78 80 82 85 85 84 86 88 87 88 86 87 88 88 92 95 76 69 67 68 65 66 72
70 69 68 67 67 68 69 69 68 67 69 71 70 70 70 69 70 70 71 71 71 72 72 73 73 73 74 74 75 76 76 76 78 78 79 79 78 77 76 76 77 78 81 83 83 83 83 86 87 87 88 88 89 89 90 96 70 67 66 65 64 65 71
71 71 70 70 68 67 69 71 70 70 69 72 75 73 75 73 73 71 69 70 69 70 70 71 71 71 71 71 72 73 75 76 76 76 78 78 77 75 75 74 75 75 76 78 81 83 84 84 87 88 88 89 89 90 89 86 63 65 64 64 64 64 82
72 71 72 72 73 71 70 71 73 74 75 74 76 75 75 76 74 72 70 70 69 68 69 70 69 70 71 72 73 73 73 73 73 73 74 74 72 72 73 73 73 73 74 75 76 78 80 83 86 86 88 89 88 89 89 84 66 60 61 61 61 70 86
70 71 72 73 73 73 72 72 74 76 77 76 76 76 75 75 75 75 73 74 73 71 71 71 69 70 70 71 74 75 76 75 75 73 73 72 72 73 73 72 71 72 74 75 75 74 76 79 80 83 85 86 87 88 87 81 70 60 59 60 60 74 86
70 72 72 72 72 71 71 70 71 73 75 76 75 75 75 75 75 75 75 75 76 76 73 71 71 71 70 70 72 75 77 78 77 76 75 73 71 71 70 71 70 71 72 72 72 73 74 75 76 78 79 82 84 79 79 82 73 58 59 59 61 73 85
68 72 72 73 72 71 69 70 71 72 73 73 73 76 76 76 75 73 73 75 76 75 73 72 72 74 74 73 73 74 75 77 77 76 76 75 73 72 70 71 71 71 71 71 71 71 71 72 73 76 77 80 80 81 80 76 75 65 55 57 60 62 77
72 73 72 72 71 71 71 72 72 71 71 71 72 76 76 76 73 71 72 73 73 72 73 72 73 73 73 74 74 75 74 75 76 76 75 75 75 74 74 73 71 72 71 71 71 71 70 71 72 72 72 73 73 73 73 73 72 67 54 55 56 58 67
68 70 72 72 71 71 71 71 70 71 72 73 74 75 75 73 69 69 70 72 72 74 76 74 73 74 74 73 72 73 73 73 74 76 77 76 76 74 74 74 75 74 73 72 72 72 72 71 70 70 70 71 71 72 72 74 74 73 61 55 54 56 58
64 66 67 68 70 72 72 71 71 72 72 74 75 75 75 73 69 69 69 69 70 74 74 74 74 73 73 72 72 73 73 73 74 75 76 76 76 75 74 74 74 74 74 74 74 74 73 73 73 73 73 73 73 72 72 71 70 68 70 60 55 54 56
65 63 68 72 72 72 73 71 72 72 73 73 72 72 72 71 68 68 67 67 71 73 74 74 74 74 73 73 72 73 73 74 75 75 75 75 75 75 74 74 74 73 74 75 75 74 74 74 75 76 76 75 75 75 72 72 70 69 68 67 59 56 54
68 67 63 63 66 69 72 73 71 72 71 71 71 71 70 71 69 68 66 69 72 72 72 73 74 74 74 74 74 74 75 75 75 75 75 76 76 74 74 73 74 73 74 74 73 73 73 74 77 76 76 75 75 74 73 74 75 74 71 67 67 60 59
68 68 67 66 65 67 68 69 72 71 70 70 71 71 70 71 71 67 68 71 72 73 73 72 72 71 72 73 74 75 77 77 78 77 76 76 77 76 75 75 74 73 73 74 74 73 73 73 75 76 76 76 76 76 76 76 76 76 76 75 74 71 63
68 69 68 66 64 64 65 67 67 67 68 67 70 73 73 72 72 71 71 71 74 73 71 72 71 70 71 72 74 74 74 74 77 78 78 77 78 77 76 76 75 74 73 74 74 74 73 74 74 75 75 75 76 76 77 77 76 74 74 74 75 77 77
68 69 69 68 66 68 67 65 63 63 63 64 66 69 71 72 72 72 72 74 74 74 71 70 71 72 71 73 73 74 74 74 70 73 76 75 76 76 76 77 77 76 73 73 73 73 74 75 74 73 73 74 75 75 76 76 78 74 70 70 70 71 74
66 67 67 66 66 67 67 67 67 66 65 63 63 65 66 68 70 71 70 71 72 71 70 70 69 69 70 71 71 71 72 73 73 74 76 75 75 73 72 73 74 73 73 71 71 71 72 74 75 74 75 75 73 72 73 75 74 68 54 56 51 55 62
64 65 66 67 67 67 66 66 65 65 64 63 64 64 63 64 66 68 70 71 71 71 69 69 69 70 70 71 72 72 73 73 74 72 73 76 76 75 71 62 56 63 72 71 63 54 48 51 67 66 69 71 73 71 70 70 66 51 45 43 43 42 43
57 58 59 64 66 66 65 65 65 65 64 65 64 62 62 62 63 64 66 68 68 69 68 68 68 69 71 70 70 68 70 73 72 72 70 71 72 73 72 72 65 47 50 59 59 53 46 43 44 47 51 60 72 69 53 52 47 44 43 43 42 41 40
58 57 59 60 63 64 65 65 65 65 64 65 65 64 63 62 62 62 64 65 66 67 67 67 67 67 69 69 69 67 68 71 69 69 70 70 70 70 70 71 71 67 50 47 50 46 44 45 45 45 45 47 50 61 68 56 49 44 43 43 42 42 40
MSLP
1013.88 1014.84 1014.92 1014.28 1014.28 1014.24 1014.44 1014.60 1014.60 1014.88 1015.12 1015.44 1015.64 1015.72 1015.80 1016.00 1016.20 1016.52 1016.96 1017.36 1017.68 1018.04 1018.12 1018.28 1018.52 1018.60 1018.88 1018.96 1019.04 1019.16 1019.28 1019.48 1019.56 1019.84 1019.96 1020.00 1020.00 1020.12 1020.32 1020.24 1020.44 1020.60 1020.44 1020.60 1020.64 1020.80 1020.72 1020.60 1020.76 1020.84 1020.96 1021.12 1021.24 1021.32 1021.44 1021.48 1021.56 1021.44 1021.56 1021.64 1021.72 1021.80 1021.92
1013.60 1014.04 1014.08 1013.92 1014.00 1013.92 1014.00 1014.16 1014.36 1014.60 1015.00 1015.20 1015.32 1015.44 1015.48 1015.80 1016.08 1016.56 1016.88 1017.12 1017.36 1017.68 1017.92 1018.08 1018.36 1018.52 1018.64 1018.80 1018.80 1019.04 1019.36 1019.44 1019.52 1019.56 1019.64 1019.84 1019.88 1020.04 1020.04 1020.20 1020.28 1020.44 1020.56 1020.36 1020.36 1020.40 1020.44 1020.56 1020.64 1020.84 1021.00 1021.04 1021.16 1021.16 1021.24 1021.36 1021.48 1021.56 1021.48 1021.68 1021.80 1021.96 1021.92
1013.32 1013.64 1013.52 1013.64 1013.92 1013.64 1013.72 1013.84 1014.16 1014.32 1014.64 1014.80 1014.96 1015.16 1015.40 1015.60 1015.84 1016.28 1016.60 1016.92 1017.28 1017.44 1017.56 1017.84 1018.08 1018.24 1018.40 1018.60 1018.84 1019.00 1019.16 1019.28 1019.44 1019.60 1019.80 1019.72 1019.88 1019.80 1019.84 1020.04 1020.20 1020.20 1020.16 1020.12 1020.24 1020.24 1020.20 1020.40 1020.56 1020.64 1020.84 1021.00 1020.92 1021.12 1021.20 1021.24 1021.36 1021.44 1021.60 1021.72 1021.84 1021.88 1022.08
1013.32 1013.16 1013.16 1013.20 1013.92 1013.44 1013.32 1013.64 1014.00 1014.12 1014.24 1014.52 1014.80 1014.92 1015.16 1015.44 1015.44 1015.80 1016.08 1016.40 1016.92 1017.24 1017.64 1017.60 1017.76 1017.96 1018.12 1018.44 1018.68 1018.88 1019.04 1019.12 1019.20 1019.28 1019.36 1019.24 1019.44 1019.56 1019.76 1019.96 1020.16 1019.96 1020.12 1020.20 1019.92 1020.00 1019.84 1020.12 1020.44 1020.60 1020.76 1020.92 1020.96 1020.88 1021.00 1021.08 1021.08 1021.32 1021.44 1021.68 1021.76 1021.76 1021.92
1012.56 1012.88 1013.24 1013.88 1013.68 1013.40 1013.48 1013.76 1013.96 1014.24 1014.44 1014.40 1014.56 1014.64 1014.80 1015.04 1015.32 1015.56 1015.84 1015.96 1016.16 1016.72 1016.88 1017.08 1017.16 1017.40 1017.68 1017.88 1018.16 1018.32 1018.64 1018.84 1019.04 1019.04 1019.08 1019.04 1019.12 1019.28 1019.64 1019.80 1019.84 1020.00 1019.92 1019.84 1019.92 1020.08 1020.20 1020.24 1020.24 1020.44 1020.64 1020.80 1020.88 1020.88 1021.04 1021.08 1021.12 1021.28 1021.40 1021.52 1021.76 1021.64 1021.76
1012.44 1013.20 1014.08 1014.24 1013.92 1014.12 1014.00 1014.08 1014.24 1014.52 1014.64 1014.76 1014.84 1014.92 1014.88 1015.12 1015.24 1015.56 1015.72 1015.96 1016.16 1016.24 1016.52 1016.80 1017.00 1017.20 1017.64 1017.60 1017.76 1017.92 1018.16 1018.48 1018.68 1018.84 1019.00 1019.04 1019.16 1019.32 1019.48 1019.64 1019.60 1019.72 1019.80 1019.88 1019.64 1019.84 1020.04 1020.16 1020.12 1020.16 1020.40 1020.44 1020.52 1020.52 1020.64 1020.88 1020.88 1021.00 1021.24 1021.40 1021.44 1021.40 1021.52
1011.96 1012.52 1013.56 1013.68 1013.92 1014.00 1014.00 1014.28 1014.52 1014.76 1014.68 1014.68 1014.72 1014.80 1014.92 1015.20 1015.56 1015.64 1015.84 1016.08 1016.28 1016.72 1016.88 1017.04 1016.92 1017.00 1017.36 1017.40 1017.60 1017.84 1018.16 1018.28 1018.52 1018.72 1018.76 1018.92 1018.92 1019.20 1019.28 1019.36 1019.44 1019.40 1019.28 1019.32 1019.68 1019.52 1019.80 1020.04 1020.04 1020.00 1020.08 1020.12 1020.28 1020.36 1020.48 1020.80 1020.80 1020.76 1021.00 1021.32 1021.52 1021.44 1021.44
1011.32 1012.04 1012.44 1013.04 1013.40 1013.80 1014.24 1014.60 1014.80 1014.76 1014.80 1014.76 1015.04 1015.20 1015.36 1015.44 1015.68 1015.88 1016.12 1016.12 1016.32 1016.64 1016.92 1017.08 1017.08 1017.08 1017.24 1017.36 1017.40 1017.68 1017.88 1017.96 1018.04 1018.32 1018.48 1018.72 1018.76 1019.00 1019.00 1019.08 1019.28 1019.28 1019.28 1019.44 1019.48 1019.40 1019.52 1019.72 1019.64 1019.76 1019.88 1019.96 1020.12 1020.20 1020.24 1020.56 1020.80 1020.64 1020.72 1021.12 1021.36 1021.36 1021.08
1011.48 1011.84 1012.60 1012.96 1013.24 1013.76 1014.20 1014.64 1015.00 1015.12 1015.20 1015.32 1015.40 1015.40 1015.44 1015.64 1015.80 1015.96 1016.08 1016.12 1016.28 1016.64 1016.88 1016.88 1017.00 1017.04 1017.20 1017.44 1017.48 1017.60 1017.60 1017.72 1017.84 1018.04 1018.32 1018.52 1018.56 1018.64 1018.56 1018.64 1018.84 1018.92 1019.28 1019.28 1019.08 1019.16 1019.28 1019.36 1019.44 1019.64 1019.80 1019.88 1020.00 1020.24 1020.24 1020.40 1020.52 1020.40 1020.52 1020.80 1021.08 1021.24 1021.04
1012.40 1012.68 1012.80 1013.04 1013.24 1013.80 1014.24 1014.76 1015.16 1015.52 1015.80 1015.88 1015.88 1015.76 1015.72 1015.84 1015.96 1015.96 1016.08 1016.16 1016.28 1016.60 1016.72 1016.80 1016.88 1017.04 1017.32 1017.56 1017.60 1017.48 1017.52 1017.80 1017.76 1017.84 1018.04 1018.28 1018.24 1018.36 1018.28 1018.12 1018.24 1018.48 1018.88 1018.96 1018.76 1018.92 1019.08 1019.08 1019.24 1019.52 1019.84 1019.96 1020.12 1020.28 1020.24 1020.28 1020.28 1020.24 1020.28 1020.60 1020.72 1020.88 1021.04
1012.92 1012.92 1013.16 1013.48 1013.84 1014.20 1014.48 1014.96 1015.52 1015.76 1015.88 1016.08 1016.44 1016.44 1016.28 1016.36 1016.24 1016.28 1016.32 1016.24 1016.44 1016.48 1016.40 1016.56 1016.64 1016.96 1017.24 1017.44 1017.72 1017.72 1017.68 1017.68 1017.68 1017.92 1018.04 1018.04 1017.84 1017.96 1018.00 1017.96 1017.92 1018.04 1018.44 1018.56 1018.64 1018.56 1018.80 1019.12 1019.12 1019.48 1019.80 1019.92 1019.96 1020.08 1020.16 1020.16 1020.16 1020.24 1020.12 1020.04 1020.08 1020.36 1020.48
1013.60 1013.48 1013.56 1013.72 1013.88 1014.20 1014.68 1015.00 1015.40 1015.68 1015.92 1016.20 1016.36 1016.48 1016.80 1016.84 1016.56 1016.44 1016.60 1016.72 1016.64 1016.76 1016.68 1016.68 1016.60 1016.88 1017.12 1017.32 1017.64 1017.76 1017.84 1017.72 1017.72 1017.84 1017.88 1017.88 1017.80 1017.72 1017.68 1017.72 1017.80 1017.88 1018.04 1018.24 1018.48 1018.48 1018.48 1018.84 1018.96 1019.20 1019.60 1019.64 1019.60 1019.64 1019.84 1019.88 1019.96 1020.08 1020.04 1019.88 1019.80 1020.00 1020.12
1014.20 1014.20 1014.12 1014.16 1013.96 1014.12 1014.28 1014.80 1015.32 1015.64 1015.92 1016.12 1016.16 1016.16 1016.52 1016.76 1016.84 1016.92 1017.00 1017.00 1016.92 1016.80 1016.84 1016.80 1016.80 1016.92 1017.08 1017.24 1017.40 1017.56 1017.68 1017.72 1017.72 1017.60 1017.60 1017.68 1017.72 1017.56 1017.52 1017.60 1017.60 1017.76 1017.96 1017.96 1018.24 1018.40 1018.56 1018.44 1018.72 1018.80 1019.04 1019.32 1019.32 1019.40 1019.48 1019.64 1019.72 1019.88 1019.96 1019.92 1019.84 1019.92 1020.04
1015.08 1014.88 1014.76 1014.92 1015.16 1015.12 1015.08 1015.00 1014.96 1015.44 1015.76 1015.96 1016.20 1016.24 1016.48 1016.56 1016.56 1016.72 1016.88 1017.04 1017.08 1017.12 1017.16 1017.24 1017.24 1017.16 1017.20 1017.32 1017.44 1017.44 1017.40 1017.28 1017.28 1017.40 1017.52 1017.52 1017.60 1017.64 1017.52 1017.48 1017.56 1017.68 1017.72 1017.76 1018.04 1018.24 1018.32 1018.36 1018.40 1018.48 1018.60 1018.84 1019.00 1019.04 1019.04 1019.32 1019.52 1019.64 1019.80 1019.80 1019.76 1019.80 1019.88
1015.40 1015.36 1015.28 1015.44 1015.52 1015.32 1015.24 1015.44 1015.52 1015.28 1015.44 1015.68 1015.84 1016.20 1016.44 1016.60 1016.64 1016.64 1016.76 1016.80 1016.96 1017.04 1017.08 1017.08 1017.36 1017.48 1017.56 1017.64 1017.88 1017.88 1017.60 1017.44 1017.28 1017.28 1017.40 1017.60 1017.72 1017.84 1017.80 1017.68 1017.68 1017.72 1017.72 1017.84 1017.92 1017.80 1017.88 1018.00 1018.04 1018.20 1018.40 1018.40 1018.64 1018.76 1018.72 1018.84 1019.08 1019.04 1019.28 1019.68 1019.92 1019.64 1019.64
1015.48 1015.44 1015.60 1015.80 1015.92 1015.88 1015.72 1015.60 1015.56 1015.44 1015.48 1015.76 1015.96 1016.12 1016.28 1016.44 1016.56 1016.60 1016.76 1016.84 1016.80 1016.92 1016.88 1016.92 1017.08 1017.24 1017.44 1017.68 1017.76 1017.76 1017.80 1017.80 1017.76 1017.68 1017.60 1017.72 1017.80 1017.84 1017.84 1017.80 1017.64 1017.56 1017.72 1017.84 1017.96 1018.00 1017.92 1017.96 1017.88 1017.96 1018.20 1018.36 1018.48 1018.60 1018.60 1018.68 1018.52 1018.60 1018.96 1019.08 1019.24 1019.36 1019.24
1016.04 1016.28 1016.40 1016.24 1016.20 1016.20 1016.12 1016.08 1016.04 1016.08 1016.04 1016.04 1016.00 1016.00 1016.16 1016.44 1016.52 1016.48 1016.44 1016.44 1016.48 1016.64 1016.68 1016.80 1017.08 1017.16 1017.28 1017.52 1017.48 1017.60 1017.72 1017.88 1018.04 1018.04 1018.16 1018.04 1017.92 1017.80 1017.80 1017.84 1017.76 1017.76 1017.84 1017.92 1018.00 1018.12 1018.08 1018.16 1018.16 1018.04 1017.96 1018.08 1018.24 1018.36 1018.32 1018.24 1018.08 1018.56 1018.92 1019.20 1019.36 1019.40 1019.36
1016.60 1016.72 1016.88 1016.92 1016.76 1016.68 1016.80 1016.80 1016.80 1016.80 1016.84 1016.92 1016.88 1016.80 1016.72 1016.72 1016.80 1016.60 1016.60 1016.44 1016.44 1016.48 1016.56 1016.84 1017.00 1017.12 1017.16 1017.16 1017.20 1017.32 1017.56 1017.72 1017.88 1018.00 1018.00 1018.08 1018.12 1018.04 1017.92 1017.88 1017.92 1017.96 1018.00 1018.00 1018.04 1018.12 1018.04 1018.24 1018.28 1018.16 1018.04 1017.92 1017.88 1018.00 1017.92 1017.84 1017.88 1018.40 1018.80 1019.12 1019.32 1019.44 1019.32
1016.92 1017.04 1017.28 1017.28 1017.28 1017.20 1017.16 1017.16 1017.20 1017.08 1017.08 1017.00 1017.00 1017.12 1017.28 1017.24 1017.44 1017.48 1017.04 1016.76 1016.52 1016.36 1016.60 1016.88 1017.00 1017.04 1017.04 1016.96 1016.96 1016.96 1017.04 1017.24 1017.44 1017.52 1017.60 1017.64 1017.72 1017.84 1017.92 1018.12 1018.20 1018.08 1018.00 1018.00 1017.72 1017.80 1018.16 1018.24 1018.20 1018.24 1018.16 1018.08 1018.16 1018.12 1017.80 1017.60 1018.04 1018.32 1018.72 1019.00 1019.28 1019.44 1019.40
1016.96 1017.28 1017.36 1017.32 1017.28 1017.32 1017.40 1017.48 1017.52 1017.64 1017.60 1017.60 1017.52 1017.40 1017.36 1017.20 1017.40 1017.44 1017.12 1017.16 1017.12 1017.20 1017.20 1017.24 1017.40 1017.44 1017.36 1017.16 1017.16 1017.08 1017.00 1017.00 1017.20 1017.32 1017.40 1017.44 1017.68 1017.92 1018.08 1018.24 1018.20 1017.96 1017.72 1017.60 1017.64 1017.88 1018.00 1017.96 1018.04 1018.04 1018.20 1018.24 1018.24 1018.24 1017.96 1017.64 1017.92 1018.20 1018.64 1018.88 1019.20 1019.36 1019.48
1016.92 1017.28 1017.60 1017.88 1017.84 1017.64 1017.68 1017.76 1017.88 1017.96 1017.84 1017.72 1017.88 1017.92 1017.88 1017.92 1017.76 1017.72 1017.68 1017.48 1017.60 1017.56 1017.56 1017.56 1017.64 1017.72 1017.68 1017.64 1017.52 1017.40 1017.40 1017.40 1017.36 1017.44 1017.40 1017.48 1017.72 1018.04 1018.28 1018.40 1018.40 1018.28 1018.00 1017.80 1017.80 1017.96 1018.04 1017.92 1017.92 1017.84 1017.88 1017.96 1018.00 1018.12 1018.08 1017.60 1017.88 1018.20 1018.52 1018.80 1019.08 1019.32 1019.44
1017.04 1017.16 1017.48 1017.76 1018.00 1018.08 1017.84 1017.84 1017.88 1017.96 1018.16 1017.60 1017.56 1017.88 1017.80 1018.08 1018.04 1018.12 1018.36 1018.00 1017.92 1017.96 1017.96 1018.04 1018.12 1018.16 1018.12 1018.12 1018.04 1017.92 1017.68 1017.60 1017.64 1017.68 1017.56 1017.52 1017.60 1017.88 1018.16 1018.36 1018.52 1018.68 1018.52 1018.24 1018.00 1017.72 1017.60 1017.68 1017.48 1017.64 1017.72 1017.72 1017.76 1017.80 1017.88 1018.04 1018.32 1018.52 1018.80 1019.08 1019.24 1019.40 1019.20
1016.92 1017.36 1017.40 1017.48 1017.60 1018.04 1018.08 1017.92 1017.76 1017.76 1017.68 1017.68 1017.72 1017.88 1017.92 1017.88 1018.00 1018.16 1018.24 1018.16 1018.32 1018.40 1018.40 1018.36 1018.48 1018.56 1018.44 1018.28 1018.16 1018.08 1018.04 1018.00 1018.04 1018.04 1017.96 1018.00 1018.16 1018.28 1018.24 1018.32 1018.48 1018.60 1018.56 1018.68 1018.40 1018.32 1018.04 1017.72 1017.68 1017.52 1017.56 1017.56 1017.68 1017.76 1017.60 1018.40 1018.72 1018.72 1018.76 1018.96 1019.12 1019.08 1018.72
1017.44 1017.60 1017.52 1017.56 1017.68 1017.92 1018.12 1018.08 1017.92 1017.84 1017.84 1018.04 1018.08 1018.12 1018.16 1018.08 1017.92 1017.96 1018.08 1018.00 1018.20 1018.44 1018.60 1018.64 1018.80 1018.72 1018.60 1018.48 1018.24 1017.96 1017.88 1017.84 1017.92 1018.20 1018.24 1018.32 1018.48 1018.44 1018.48 1018.52 1018.48 1018.44 1018.32 1018.40 1018.48 1018.56 1018.28 1018.00 1017.92 1017.68 1017.64 1017.68 1017.68 1017.68 1017.92 1018.52 1018.88 1018.92 1018.80 1018.88 1019.00 1018.76 1018.44
1017.68 1017.52 1017.60 1017.76 1018.00 1018.32 1018.48 1018.68 1018.52 1018.36 1018.20 1018.16 1018.36 1018.36 1018.32 1018.36 1018.28 1018.24 1018.40 1018.36 1018.28 1018.36 1018.68 1018.84 1018.88 1018.84 1018.80 1018.72 1018.48 1018.16 1017.92 1017.84 1017.80 1018.00 1018.24 1018.56 1018.76 1018.72 1018.80 1018.88 1018.92 1018.72 1018.64 1018.64 1018.68 1018.64 1018.40 1018.20 1018.20 1018.24 1018.16 1017.96 1017.88 1018.12 1018.56 1018.60 1019.04 1019.36 1019.28 1019.20 1019.16 1018.88 1018.32
1018.12 1017.76 1017.80 1017.92 1018.20 1018.52 1018.76 1018.80 1018.80 1018.76 1018.88 1018.92 1018.84 1018.48 1018.44 1018.48 1018.68 1018.88 1018.92 1018.84 1018.68 1018.76 1019.00 1019.00 1018.96 1018.80 1018.68 1018.64 1018.52 1018.40 1018.36 1018.12 1018.04 1018.08 1018.24 1018.44 1018.64 1018.68 1018.84 1018.80 1018.76 1018.72 1018.96 1019.04 1019.00 1018.96 1018.80 1018.64 1018.60 1018.64 1018.52 1018.32 1018.36 1018.28 1018.44 1019.04 1019.56 1019.96 1019.80 1019.64 1019.44 1019.24 1018.68
1018.12 1018.12 1018.32 1018.44 1018.64 1018.64 1018.76 1018.88 1018.96 1019.16 1019.24 1019.28 1019.00 1018.68 1018.64 1018.72 1019.08 1019.40 1019.36 1019.20 1019.16 1019.20 1019.12 1019.08 1019.00 1018.88 1018.84 1018.72 1018.64 1018.68 1018.68 1018.60 1018.56 1018.56 1018.52 1018.44 1018.48 1018.44 1018.56 1018.64 1018.88 1018.84 1018.84 1018.88 1019.04 1019.24 1019.40 1019.40 1019.16 1019.16 1019.28 1019.16 1019.08 1019.12 1019.16 1019.24 1019.76 1020.28 1020.20 1020.08 1019.88 1019.56 1019.16
1019.28 1018.92 1018.76 1018.80 1018.88 1018.92 1019.12 1019.28 1019.40 1019.32 1019.32 1019.20 1019.12 1019.08 1019.12 1019.28 1019.64 1019.72 1019.60 1019.52 1019.56 1019.44 1019.20 1019.20 1019.16 1019.04 1019.08 1019.12 1019.08 1019.00 1019.00 1019.00 1018.96 1018.80 1018.72 1018.68 1018.56 1018.68 1018.80 1018.60 1018.56 1018.64 1018.80 1018.92 1019.12 1019.24 1019.36 1019.64 1019.88 1019.84 1019.76 1019.84 1019.92 1019.68 1019.32 1019.20 1019.56 1019.88 1020.16 1020.28 1020.08 1019.80 1019.52
1020.20 1020.08 1019.96 1019.72 1019.36 1019.24 1019.28 1019.52 1019.52 1019.52 1019.48 1019.28 1019.20 1019.24 1019.32 1019.56 1019.96 1020.04 1020.04 1020.12 1019.96 1019.60 1019.52 1019.36 1019.28 1019.32 1019.36 1019.40 1019.40 1019.40 1019.32 1019.28 1019.24 1019.20 1019.08 1019.08 1018.92 1018.96 1019.12 1019.04 1018.96 1018.92 1018.88 1019.04 1019.20 1019.20 1019.28 1019.44 1019.64 1019.76 1019.84 1019.80 1019.68 1019.48 1019.44 1019.64 1019.80 1019.92 1020.08 1020.28 1020.24 1020.08 1019.92
1020.40 1020.36 1020.08 1019.68 1019.68 1019.56 1019.48 1019.68 1019.64 1019.72 1019.64 1019.64 1019.68 1019.68 1019.76 1019.92 1020.28 1020.36 1020.48 1020.52 1020.08 1019.80 1019.64 1019.56 1019.52 1019.48 1019.48 1019.56 1019.64 1019.60 1019.56 1019.44 1019.40 1019.36 1019.32 1019.36 1019.32 1019.32 1019.40 1019.48 1019.44 1019.40 1019.36 1019.24 1019.28 1019.40 1019.52 1019.56 1019.60 1019.56 1019.64 1019.68 1019.44 1019.40 1019.56 1019.60 1019.76 1019.96 1020.16 1020.28 1020.32 1020.24 1020.16
1020.24 1020.44 1020.76 1020.92 1020.72 1020.52 1020.16 1019.92 1019.92 1019.88 1019.96 1020.04 1020.08 1020.08 1020.08 1020.12 1020.36 1020.60 1020.72 1020.48 1020.08 1020.04 1019.92 1019.84 1019.72 1019.68 1019.72 1019.68 1019.64 1019.60 1019.56 1019.56 1019.60 1019.60 1019.52 1019.44 1019.44 1019.64 1019.64 1019.68 1019.56 1019.68 1019.60 1019.60 1019.68 1019.72 1019.72 1019.64 1019.48 1019.68 1019.72 1019.80 1019.76 1019.76 1019.92 1019.92 1019.88 1020.00 1020.24 1020.36 1020.28 1020.24 1020.16
1020.32 1020.44 1020.76 1021.08 1021.28 1021.00 1021.00 1020.56 1020.00 1020.04 1020.28 1020.32 1020.24 1020.40 1020.44 1020.40 1020.48 1020.80 1020.68 1020.32 1020.16 1020.04 1020.12 1020.12 1020.16 1020.24 1020.16 1020.00 1019.88 1019.72 1019.44 1019.44 1019.36 1019.40 1019.48 1019.48 1019.44 1019.56 1019.60 1019.68 1019.72 1019.84 1019.84 1019.68 1019.80 1019.84 1019.92 1020.00 1019.92 1019.84 1019.76 1019.88 1019.80 1019.92 1019.92 1019.96 1019.96 1019.96 1019.96 1020.00 1020.00 1019.92 1020.00
1020.40 1020.52 1020.76 1021.16 1021.40 1021.48 1021.36 1020.88 1020.68 1020.76 1020.76 1020.88 1020.60 1020.44 1020.52 1020.68 1020.64 1020.72 1020.64 1020.48 1020.20 1020.28 1020.40 1020.40 1020.48 1020.52 1020.40 1020.28 1020.08 1020.08 1020.04 1019.96 1019.72 1019.48 1019.48 1019.56 1019.44 1019.52 1019.64 1019.72 1019.80 1020.00 1020.04 1019.92 1020.00 1020.04 1020.16 1020.12 1020.20 1020.12 1020.08 1020.16 1020.04 1019.96 1019.92 1020.00 1020.04 1020.12 1020.20 1020.08 1019.96 1019.68 1019.48
1020.44 1020.40 1020.48 1020.80 1021.08 1021.00 1020.92 1020.96 1021.12 1021.40 1021.64 1021.52 1021.36 1021.08 1020.92 1020.84 1020.84 1020.80 1020.64 1020.44 1020.40 1020.52 1020.68 1020.80 1020.68 1020.56 1020.64 1020.52 1020.40 1020.32 1020.24 1020.32 1020.48 1020.12 1019.80 1019.92 1019.84 1019.84 1019.88 1019.80 1019.80 1019.96 1020.28 1020.44 1020.44 1020.40 1020.32 1020.24 1020.36 1020.48 1020.44 1020.44 1020.20 1020.16 1020.08 1019.88 1019.72 1020.20 1020.56 1020.52 1020.44 1020.20 1019.80
1020.72 1020.72 1020.88 1021.08 1021.08 1020.88 1020.84 1020.72 1020.92 1021.24 1021.48 1021.84 1021.96 1021.76 1021.64 1021.48 1021.28 1021.16 1021.16 1021.04 1020.88 1020.88 1020.92 1021.00 1021.08 1021.08 1021.04 1020.88 1020.80 1020.84 1020.64 1020.40 1020.36 1020.24 1020.00 1019.96 1020.00 1020.40 1020.60 1020.52 1020.40 1020.40 1020.56 1020.88 1020.96 1021.00 1020.84 1020.60 1020.32 1020.44 1020.40 1020.28 1020.44 1020.48 1020.32 1020.08 1020.20 1021.04 1021.84 1021.80 1021.84 1021.56 1021.00
1020.96 1021.04 1021.00 1021.00 1021.12 1021.12 1021.16 1021.12 1021.32 1021.60 1021.76 1022.00 1022.12 1022.20 1022.36 1022.24 1021.96 1021.64 1021.44 1021.36 1021.28 1021.16 1021.24 1021.24 1021.12 1021.08 1021.00 1020.92 1020.84 1020.80 1020.64 1020.52 1020.44 1020.64 1020.48 1020.08 1020.08 1020.24 1020.88 1021.28 1021.16 1021.12 1020.84 1021.12 1021.68 1021.88 1021.96 1021.72 1021.32 1021.36 1021.08 1020.80 1020.36 1020.68 1020.96 1020.92 1021.24 1021.64 1021.60 1021.60 1021.52 1021.48 1021.52
1021.24 1021.68 1022.00 1021.68 1021.36 1021.28 1021.40 1021.60 1021.72 1021.80 1022.00 1022.16 1022.32 1022.56 1022.68 1022.68 1022.48 1022.24 1022.08 1021.92 1021.84 1021.72 1021.72 1021.56 1021.48 1021.28 1021.16 1021.24 1021.32 1021.60 1021.24 1020.84 1020.84 1020.88 1021.00 1020.84 1020.72 1020.60 1020.64 1020.96 1021.52 1021.56 1021.64 1021.72 1021.84 1021.92 1021.96 1022.00 1022.04 1022.00 1021.96 1021.72 1020.92 1020.84 1021.40 1021.52 1021.64 1021.72 1021.72 1021.64 1021.48 1021.36 1021.28
1021.04 1021.28 1021.56 1021.84 1021.68 1021.56 1021.60 1021.84 1021.92 1022.04 1022.28 1022.36 1022.44 1022.64 1022.72 1022.80 1022.72 1022.56 1022.48 1022.44 1022.32 1022.20 1022.08 1021.92 1021.72 1021.72 1021.56 1021.56 1021.64 1021.80 1021.68 1021.32 1021.48 1021.36 1021.20 1021.24 1021.20 1021.00 1021.08 1020.84 1020.80 1021.48 1021.76 1021.72 1021.80 1022.04 1022.08 1022.08 1022.00 1022.04 1022.00 1021.96 1021.92 1021.44 1021.12 1021.48 1021.76 1021.88 1021.76 1021.68 1021.52 1021.32 1021.24
Wind_Speed
19 20 19 15 14 15 16 15 15 13 12 13 13 14 13 11 11 11 11 12 13 13 13 12 12 11 11 10 10 9 8 8 7 7 7 6 5 5 5 5 5 4 4 4 4 4 4 4 4 4 4 5 5 4 3 3 3 3 3 2 3 2 2
15 18 19 17 15 16 17 16 15 13 13 13 13 13 12 13 12 12 11 13 13 13 13 12 12 11 11 10 9 10 10 9 8 6 7 6 5 5 5 5 5 4 4 4 3 4 4 5 5 5 5 5 5 4 4 4 3 3 3 3 3 3 3
14 16 17 16 14 15 17 16 15 14 14 13 13 12 12 11 12 13 13 13 13 13 12 13 12 12 11 10 10 10 10 10 9 9 9 8 8 8 7 6 6 6 6 5 4 4 5 5 5 5 5 5 5 5 4 4 4 4 3 3 4 4 3
15 16 16 15 15 14 15 14 15 14 13 13 12 13 12 13 13 12 12 13 14 13 14 13 13 13 12 11 11 10 11 11 10 9 10 9 8 8 7 7 6 6 6 6 6 5 4 5 6 6 6 6 5 5 5 4 4 5 4 4 4 3 3
15 14 13 11 12 12 13 13 13 11 11 11 11 11 12 12 12 11 12 12 13 14 15 14 12 12 11 11 10 9 11 11 11 10 9 8 8 8 8 8 8 8 6 6 6 6 5 5 6 6 7 6 7 6 5 5 5 5 5 5 4 3 4
15 15 14 14 13 10 10 11 11 8 7 9 10 10 10 11 11 11 11 11 11 11 11 12 13 11 12 12 11 10 10 10 10 10 9 9 9 8 9 8 8 8 8 7 7 7 7 7 7 7 8 8 8 7 7 7 6 6 6 5 5 4 6
13 14 13 13 13 13 11 11 10 8 6 7 8 8 8 9 10 9 9 9 10 10 11 11 12 12 11 10 11 11 11 11 11 11 10 11 10 9 9 8 8 7 8 7 7 7 8 8 7 7 7 7 7 7 6 6 5 5 5 5 5 4 4
10 11 12 13 13 12 11 9 9 9 7 6 7 8 9 8 9 9 10 9 9 9 9 10 10 10 9 9 10 11 11 11 10 10 10 11 11 11 10 9 8 8 7 8 8 8 8 8 8 8 7 7 7 7 7 7 6 6 6 6 6 6 5
8 9 10 11 13 12 11 10 8 7 8 8 8 8 9 8 9 9 10 10 9 10 10 10 10 9 8 9 9 11 11 10 10 10 11 11 11 12 12 11 10 9 9 9 8 8 8 8 8 7 7 7 6 7 7 7 7 7 6 6 6 5 5
7 10 10 11 10 10 12 11 9 8 8 7 6 7 8 6 5 7 8 9 9 10 11 10 10 9 9 8 9 10 10 10 9 10 11 11 10 12 11 10 10 10 10 9 8 8 8 8 8 7 7 7 7 7 7 7 7 7 7 7 6 6 6
6 8 10 11 12 12 13 11 10 8 7 5 3 2 5 7 7 6 6 7 8 9 10 10 9 9 10 10 10 9 9 10 10 10 10 10 10 11 11 11 10 9 10 10 9 9 8 8 7 7 7 7 8 7 7 7 7 7 7 7 6 7 6
5 7 8 10 11 13 14 13 8 7 7 8 7 6 5 4 5 6 5 5 5 6 8 9 9 9 9 9 9 9 10 10 9 9 10 10 9 10 10 10 10 9 9 9 9 9 8 8 8 8 8 7 7 7 7 7 7 7 7 7 7 7 7
3 3 6 8 8 9 11 12 11 8 7 6 8 7 6 7 8 7 6 7 6 6 6 7 8 8 8 9 9 9 9 10 9 8 9 9 9 8 9 9 10 10 9 9 9 10 9 9 9 8 8 8 7 7 7 7 7 7 7 7 6 6 6
8 7 7 7 7 7 8 8 9 10 8 8 7 6 6 6 6 7 8 9 8 7 6 4 5 7 7 8 9 9 9 9 9 9 8 7 7 8 8 9 9 8 8 8 9 10 10 10 9 9 8 8 8 7 7 7 7 7 7 7 7 7 7
8 8 8 8 7 7 7 8 8 8 10 10 10 10 10 9 7 6 6 7 7 9 11 10 9 8 6 6 6 6 5 5 6 7 7 7 7 7 8 8 8 8 8 8 8 8 9 10 10 9 9 9 8 8 8 8 8 8 8 8 8 7 7
8 9 9 9 9 9 9 8 6 5 7 8 10 11 11 10 9 10 10 10 9 9 8 10 11 9 8 9 9 8 6 4 5 6 7 7 8 8 8 8 9 10 9 9 8 8 7 8 9 10 10 9 9 9 9 8 7 5 4 0 5 6 6
9 10 10 9 9 9 10 10 10 9 8 5 5 7 6 5 7 9 10 10 10 10 9 8 8 8 8 8 8 6 6 5 5 4 5 7 8 8 8 8 8 8 8 9 8 8 8 8 9 10 10 10 10 10 10 9 7 12 11 9 8 7 7
10 11 10 9 9 8 9 9 9 9 9 9 10 9 6 5 3 3 6 6 9 9 8 9 8 9 9 9 8 9 9 8 10 10 10 9 8 6 5 5 8 8 8 8 9 8 9 9 9 9 9 9 10 10 9 9 8 15 12 11 10 8 7
11 11 10 10 10 9 9 9 9 9 9 9 9 9 9 9 9 7 6 5 1 4 6 6 7 9 9 9 9 9 10 11 11 11 12 12 11 9 6 6 8 11 10 10 9 9 9 9 9 9 8 8 8 8 8 9 12 13 12 11 10 10 9
11 11 11 11 10 11 10 9 9 9 11 12 11 10 8 8 8 7 7 7 8 8 7 7 7 6 5 2 2 7 8 8 8 9 9 9 7 7 8 8 9 9 9 8 9 9 9 10 10 8 8 7 8 8 8 10 10 12 12 9 9 8 8
12 12 12 12 10 11 11 11 9 8 9 11 10 9 9 9 8 7 7 8 9 8 8 8 8 7 6 5 4 4 3 1 4 6 7 7 7 7 8 8 7 7 7 7 8 8 8 10 10 9 9 9 9 9 9 9 12 12 12 9 8 6 7
12 12 13 11 12 10 11 9 9 9 8 9 10 8 8 9 8 9 7 7 9 8 8 7 8 8 7 7 7 6 5 3 2 1 1 2 6 9 8 6 6 6 7 7 7 7 8 8 9 8 9 9 9 9 10 2 10 10 8 6 4 5 5
13 13 13 12 12 11 9 8 9 9 8 8 9 8 8 8 7 8 8 9 7 7 7 8 7 7 7 8 7 6 6 6 5 5 4 4 6 4 2 7 7 6 6 7 7 8 8 7 7 7 7 8 8 8 8 5 6 8 8 8 7 7 6
13 11 11 11 11 10 10 9 9 9 9 10 10 9 7 7 7 9 8 9 9 9 8 8 8 6 7 7 7 6 6 6 6 6 6 6 7 6 7 7 4 3 2 4 6 8 7 4 3 4 4 5 6 5 6 5 4 3 7 7 6 6 6
12 12 12 11 10 10 9 8 8 8 8 9 10 9 8 8 8 8 8 8 8 8 9 8 7 7 7 6 6 7 7 6 5 5 5 5 6 5 6 7 5 5 3 4 5 5 4 3 2 2 1 1 4 4 4 4 5 7 5 2 3 5 6
11 12 12 11 11 10 9 8 8 9 9 9 8 8 8 8 8 8 7 7 7 8 8 8 7 7 7 6 6 6 7 7 7 7 6 5 5 4 5 4 3 3 5 5 4 4 5 5 4 1 2 3 2 2 4 8 8 9 8 7 5 7 6
10 10 11 11 11 9 8 7 7 8 8 6 6 6 7 7 8 8 7 7 7 8 8 7 6 7 7 7 7 8 7 7 7 7 6 6 5 5 4 3 4 4 6 5 4 3 2 2 4 5 5 6 6 7 6 7 5 4 9 9 10 10 9
10 11 10 10 9 9 8 8 8 8 8 6 6 6 7 7 8 7 6 7 7 7 6 6 6 7 7 8 8 8 8 8 7 6 6 6 5 5 5 4 3 4 5 5 5 7 7 6 4 3 2 2 4 4 5 8 9 4 3 6 9 10 12
8 7 7 6 7 8 7 7 7 7 7 6 7 6 7 8 8 7 7 7 7 5 5 5 6 6 6 7 7 7 7 7 8 6 5 6 7 7 7 5 5 5 4 6 6 6 6 5 5 5 4 4 4 5 6 6 6 6 4 4 5 7 8
8 7 5 6 6 5 7 7 7 7 7 7 7 7 6 7 7 7 7 7 5 5 5 5 5 4 5 6 6 6 6 6 7 6 6 6 6 7 7 6 6 6 5 4 5 5 5 5 3 4 4 4 5 6 5 5 5 5 6 3 3 4 4
11 10 9 7 7 5 4 6 8 8 8 7 8 7 6 6 6 7 7 5 4 5 5 5 4 4 5 5 4 4 5 5 5 5 5 5 6 6 6 6 6 5 5 5 5 5 5 4 3 2 3 4 4 5 6 5 3 3 3 1 2 2 3
9 9 9 8 5 5 5 6 8 9 9 8 7 6 5 5 5 6 5 4 4 5 5 4 5 5 5 4 4 4 4 3 4 5 6 5 5 5 5 5 5 5 4 4 5 5 4 4 3 2 3 3 3 3 3 3 2 2 2 1 2 2 2
9 9 10 9 8 5 3 5 7 8 8 7 6 5 5 5 4 5 4 3 4 5 4 4 4 4 3 4 4 4 5 5 5 4 5 5 4 4 4 4 4 4 3 4 4 4 3 2 2 2 2 2 1 1 1 1 1 3 3 4 4 4 3
6 7 7 8 7 6 7 8 8 7 5 4 5 5 5 4 4 5 5 5 5 5 4 4 4 4 5 5 4 4 4 4 4 3 4 4 4 5 4 4 3 4 4 4 4 2 2 1 2 2 2 2 1 1 1 1 1 5 5 5 6 6 5
3 3 5 5 4 4 5 6 7 6 6 6 4 4 4 5 5 5 5 5 4 4 4 4 4 3 3 3 3 3 3 3 3 4 3 3 4 5 6 6 5 4 5 7 6 6 4 3 2 2 3 2 2 3 2 3 3 5 5 5 4 5 5
4 3 3 3 3 4 5 6 5 5 5 5 4 4 4 4 5 5 5 4 4 4 4 3 2 2 3 3 3 4 3 3 3 4 4 3 3 3 6 8 8 7 5 5 6 5 5 6 5 5 5 4 2 5 4 4 5 8 11 10 9 7 6
8 4 2 3 4 5 5 5 5 6 5 4 4 4 3 3 3 4 5 5 4 4 4 3 3 3 3 3 5 6 5 4 4 4 3 4 4 3 2 5 6 5 8 7 4 4 4 4 3 4 6 5 3 4 10 8 7 10 11 11 9 8 7
10 10 9 5 4 5 6 7 7 6 6 5 4 4 4 4 3 4 4 4 4 4 4 4 3 3 3 4 4 3 5 4 4 3 3 3 3 2 1 2 2 5 3 8 10 5 5 3 3 5 5 5 4 5 2 5 7 10 11 10 9 8 7
Wind_Direction
184 185 202 200 194 192 190 196 196 192 191 189 195 194 192 192 189 185 184 181 186 188 188 192 196 197 200 201 201 198 201 201 202 203 205 206 209 207 205 213 205 214 229 211 203 209 204 209 208 201 196 192 204 191 196 198 212 205 198 224 240 273 278
185 188 193 195 194 191 189 191 193 190 190 194 195 195 194 190 186 187 182 180 185 188 190 192 195 199 200 203 202 200 201 204 207 208 210 207 205 208 216 213 230 210 228 241 210 209 207 197 205 204 204 196 203 198 194 199 209 228 217 199 230 218 230
187 189 192 191 194 193 189 190 192 192 193 194 196 196 196 187 184 185 181 181 183 187 191 194 195 200 201 200 204 202 203 207 206 208 212 209 203 213 207 218 219 223 218 215 224 213 197 203 194 206 207 206 208 192 206 200 202 213 212 213 229 218 217
183 188 187 187 190 195 188 190 190 193 196 197 198 198 193 187 188 186 187 184 182 185 192 196 196 201 201 201 204 203 205 207 212 211 215 219 210 212 213 207 219 228 214 219 213 219 202 193 189 196 204 204 211 205 203 213 201 200 201 202 231 213 233
182 177 179 180 182 184 184 185 184 188 194 196 197 194 191 188 188 188 192 193 192 192 193 197 199 200 202 202 203 203 204 205 207 214 218 221 219 216 213 218 209 219 218 212 209 206 218 204 200 192 192 205 201 201 205 199 209 195 198 205 222 214 237
177 170 172 179 172 161 169 161 159 159 178 181 185 186 186 186 190 193 193 190 198 194 193 198 203 198 203 203 206 205 201 204 208 210 218 221 220 216 214 217 223 213 208 214 206 201 200 210 213 198 196 192 206 198 198 196 199 200 191 207 222 206 235
173 176 176 184 179 173 159 148 147 156 179 186 186 184 185 184 188 186 185 190 190 190 190 197 204 202 201 205 206 206 205 205 204 211 212 218 216 219 217 216 223 217 223 198 212 204 198 204 210 208 205 204 197 205 191 193 195 195 189 203 202 225 239
170 177 173 175 177 165 144 131 136 157 176 174 179 180 184 180 179 183 183 184 182 185 189 196 201 207 201 208 206 208 207 211 206 209 213 217 216 217 217 215 212 218 224 217 205 213 208 203 204 202 204 208 200 203 190 186 195 202 193 197 205 221 213
166 164 175 173 176 170 145 134 132 147 159 173 183 184 183 181 181 182 184 183 182 183 186 191 196 195 200 206 210 209 211 215 213 208 214 217 218 218 217 210 211 211 218 224 210 204 219 205 209 197 200 210 198 195 201 189 198 207 203 201 207 222 243
156 172 175 171 164 155 141 135 129 130 140 152 179 180 176 168 170 182 184 186 186 189 186 187 191 192 196 202 209 213 215 215 222 218 213 216 216 220 220 221 210 204 215 221 222 208 204 216 208 195 198 206 198 200 209 197 206 207 200 203 212 219 218
159 166 169 166 160 155 143 142 145 146 148 133 104 130 126 142 154 169 184 189 190 190 185 184 186 188 192 198 203 211 220 220 217 219 221 224 221 215 216 222 220 207 210 216 221 212 199 201 210 199 200 210 202 203 207 208 208 210 216 210 207 211 218
137 163 167 165 165 163 157 161 147 153 157 158 162 164 140 154 177 164 159 183 185 199 192 185 182 185 192 195 202 203 212 222 220 220 221 224 226 226 218 217 219 217 204 215 219 216 212 196 201 199 200 214 211 206 206 211 216 214 223 220 211 209 218
121 116 157 162 170 179 181 177 177 168 155 153 160 149 151 168 181 180 194 204 204 200 193 185 178 182 188 188 195 197 202 209 219 223 222 218 225 229 224 220 218 218 218 209 216 216 215 207 202 200 201 202 212 213 205 209 216 219 221 231 233 229 229
86 102 101 104 105 131 160 180 188 182 172 166 158 154 156 166 180 181 180 189 187 179 185 189 180 169 176 188 198 198 199 210 210 216 218 226 228 231 230 228 222 220 220 222 215 216 217 221 208 202 206 207 210 215 210 208 216 214 223 230 229 225 225
109 109 120 115 119 139 160 159 176 178 176 182 179 178 175 176 176 168 169 181 183 183 198 199 199 204 191 189 206 220 223 225 221 214 213 216 221 226 235 232 227 224 224 219 226 221 218 222 224 215 212 209 213 216 218 216 213 216 214 216 231 243 238
124 120 109 99 96 86 84 91 108 157 160 168 172 178 183 182 179 182 182 190 190 194 197 200 208 201 191 194 199 198 192 199 223 230 228 220 213 216 220 230 229 222 215 215 217 228 233 233 231 228 222 218 212 218 224 227 232 187 125 293 242 235 243
101 101 95 94 92 88 87 91 97 97 99 115 151 174 180 177 198 194 194 197 194 193 187 190 196 199 196 198 194 190 184 184 197 193 222 233 237 225 215 218 225 225 219 215 213 220 221 226 232 233 232 230 227 222 225 227 222 144 164 183 222 249 246
109 103 101 98 97 93 91 93 93 94 91 86 77 74 96 119 129 214 198 202 210 206 197 201 207 208 206 205 198 206 206 200 213 217 218 218 219 223 219 223 223 220 216 215 210 211 219 217 225 236 240 237 235 232 232 235 144 151 167 188 199 216 242
108 106 105 105 104 103 98 94 89 90 88 84 81 78 65 68 68 58 58 65 125 194 198 208 221 224 225 222 218 217 212 209 212 213 218 215 214 204 183 194 216 218 217 216 217 208 213 218 218 221 227 241 246 247 241 246 141 164 167 186 199 202 231
112 110 106 103 106 106 101 95 91 84 84 82 80 74 62 66 75 71 80 77 75 81 85 92 85 81 80 87 240 240 230 216 216 218 216 218 206 188 195 205 215 222 220 217 213 212 215 218 214 215 218 225 236 239 245 254 156 163 167 183 197 199 222
121 119 107 105 102 104 103 100 96 95 95 95 90 89 84 69 59 58 61 75 80 84 89 87 89 81 81 81 72 66 74 144 228 234 228 217 201 194 201 212 224 229 233 227 220 217 219 226 222 219 220 221 226 231 236 240 149 160 168 184 196 186 220
121 119 116 111 106 98 100 101 101 97 98 105 101 93 94 105 113 100 85 65 68 62 66 74 82 85 83 80 72 71 67 83 111 56 13 262 221 209 196 209 233 241 249 241 233 229 228 226 233 225 222 225 230 233 238 48 85 93 96 109 143 169 222
117 114 113 114 108 100 88 91 94 94 90 83 88 88 88 90 93 95 93 86 76 77 68 68 63 67 81 86 83 87 89 85 79 72 67 63 54 53 186 195 200 211 212 234 227 219 226 220 225 230 232 228 227 232 248 110 65 99 117 123 152 193 225
108 108 107 103 102 97 93 90 94 94 96 96 92 86 80 79 79 85 88 90 95 93 83 72 65 55 49 53 64 74 79 85 89 84 82 80 77 68 53 47 42 57 331 239 211 211 208 215 226 223 230 247 234 231 227 110 50 92 123 142 169 238 235
122 121 118 112 106 100 89 80 84 92 90 88 88 83 77 73 74 77 74 74 78 80 77 72 70 62 54 46 46 62 72 80 85 90 87 81 77 72 68 61 39 33 36 44 32 31 40 43 83 114 11 296 240 37 280 151 84 41 46 93 184 251 236
129 129 120 110 103 95 92 97 97 91 86 81 83 90 86 79 74 70 70 72 73 74 67 62 57 61 62 58 55 54 61 66 71 72 71 73 77 76 74 77 92 106 77 49 36 27 26 14 9 76 130 145 189 96 50 59 42 26 23 25 2 346 301
108 105 109 110 105 105 103 95 86 86 81 73 67 68 69 71 71 67 62 63 64 63 65 61 59 61 59 58 56 53 53 58 65 69 69 68 69 66 76 85 65 69 107 110 90 78 35 2 21 34 29 26 45 71 71 76 79 18 17 21 13 359 335
65 76 85 96 101 105 103 102 102 98 97 96 92 85 79 75 70 64 60 63 65 68 70 70 63 59 59 56 51 51 53 54 57 66 72 69 77 89 81 73 93 82 100 119 129 135 132 127 113 96 71 35 15 22 76 81 85 84 63 18 11 13 5
77 70 74 80 105 114 117 113 102 89 83 77 75 79 84 84 82 75 69 61 51 56 56 60 65 67 68 64 60 56 55 56 54 54 62 72 74 80 81 80 80 85 89 110 108 112 106 97 109 121 123 124 131 130 101 81 75 56 48 12 12 20 21
114 94 85 90 79 73 99 103 99 93 83 75 71 71 71 81 83 78 72 61 42 46 51 59 65 71 77 75 67 62 58 57 57 55 56 52 62 71 76 76 81 86 87 95 113 113 109 113 129 137 131 117 109 108 102 93 84 66 46 16 353 20 26
133 123 105 59 39 34 44 91 97 91 87 78 71 65 72 80 87 85 74 63 51 46 47 48 51 53 58 59 68 74 72 68 67 61 53 57 57 57 60 59 53 60 55 63 72 73 82 88 90 95 95 92 109 109 97 86 93 98 113 73 66 85 20
128 122 115 118 127 122 110 74 74 82 76 72 72 71 58 64 73 75 68 58 47 50 48 49 50 50 46 58 55 45 57 79 84 74 67 61 59 58 53 55 55 50 41 51 60 55 53 49 59 63 81 118 120 111 114 125 106 97 72 60 3 148 121
150 152 152 145 135 116 75 76 73 63 59 55 38 48 62 57 67 80 88 76 80 66 43 45 49 48 47 45 58 63 47 33 25 48 65 46 61 67 59 55 67 68 55 51 45 53 50 50 53 42 72 92 85 99 113 115 106 65 43 12 2 357 353
155 154 141 135 148 160 142 113 102 92 74 49 34 33 34 54 61 58 46 56 53 63 66 54 28 39 33 36 35 35 41 58 43 9 53 56 40 40 43 48 45 59 56 39 27 20 36 39 44 32 38 27 15 13 349 337 74 54 13 4 353 341 336
97 102 116 131 147 138 112 120 118 120 114 91 58 30 36 40 43 51 52 45 49 59 55 57 64 47 47 39 47 47 26 38 48 27 29 65 81 75 41 19 23 33 67 50 26 7 359 351 12 35 8 358 24 347 339 298 12 29 18 356 342 317 321
90 86 113 129 148 131 117 107 113 119 110 99 90 83 65 40 40 41 44 45 43 37 51 53 56 65 53 30 29 27 26 24 47 43 6 24 42 84 106 59 47 32 11 69 60 45 19 350 19 4 346 333 356 51 346 9 18 359 355 353 345 335 291
124 116 92 260 171 149 136 135 145 140 131 123 118 102 96 91 71 52 44 37 36 38 51 42 39 30 47 32 33 15 346 7 23 33 35 15 16 19 41 142 114 94 96 77 77 67 29 30 7 1 0 349 326 94 93 58 27 1 344 342 340 330 322
169 168 167 180 189 171 168 169 168 159 150 150 153 145 140 123 102 90 73 48 36 26 32 25 32 42 36 37 30 26 352 6 21 0 16 32 14 11 16 332 139 146 225 163 145 153 153 144 59 4 7 11 11 343 107 62 20 345 338 332 337 330 326